Regional Weather Roundup
Issued by NWS

Home | Current Version | Previous Version | Graphics & Text | Print | Product List | Glossary Off
Versions: 1 2 3 4 5 6 7 8 9 10 11 12 13 14 15 16 17 18 19 20 21 22 23 24 25 26 27 28 29 30 31 32 33 34 35 36 37 38 39 40 41 42 43 44 45 46 47 48 49 50

000
ASUS43 KDTX 301001
RWRMI
MICHIGAN HOURLY REGIONAL WEATHER ROUNDUP
NATIONAL WEATHER SERVICE DETROIT/PONTIAC MI
500 AM EST FRI JAN 30 2015

NOTE: "FAIR" INDICATES FEW OR NO CLOUDS BELOW 12,000 FEET WITH NO
SIGNIFICANT WEATHER AND/OR OBSTRUCTION TO VISIBILITY.

MIZ047>049-052>055-059>063-066>070-074>076-081>083-301100-
SOUTHEAST LOWER MICHIGAN

CITY           SKY/WX    TMP DP  RH WIND       PRES   REMARKS
ADRIAN         CLOUDY    22  10  60 N16G28    30.25R WCI   8
ALMA           MOCLDY    18   8  66 NW12G22   30.30R WCI   5
ANN ARBOR      CLOUDY    21  12  68 N16G29    30.23R WCI   7
BAD AXE        LGT SNOW  12   8  81 NW16G25   30.24R WCI  -4
CARO           FLURRIES  15   8  75 NW12      30.27R WCI   1
DETROIT CITY   CLOUDY    22   9  57 N20G26    30.21R WCI   7
DETROIT        CLOUDY    22  12  65 MISG      30.22R
FLINT          LGT SNOW  19  11  70 NW16      30.26R WCI   4
GROSSE ILE     CLOUDY    21  12  68 NW16G24   30.20R WCI   7
HILLSDALE      FLURRIES  21  13  72 NW20G25   30.23R WCI   5
HOWELL         PTCLDY    17   9  68 NW21G32   30.24R WCI   1

CITY           SKY/WX    TMP DP  RH WIND       PRES   REMARKS
JACKSON        FLURRIES  20  11  68 N13G28    30.25R WCI   7
LAMBERTVILLE   CLOUDY    27  14  59 NW12G17   30.23R WCI  16
LANSING        MOCLDY    19   9  65 N12       30.29R WCI   7
LAPEER         CLOUDY    15   8  73 N16G23    30.23R WCI   0
MASON          CLOUDY    19   9  65 N15G23    30.26R WCI   4
MONROE         PTCLDY    21  12  68 N16G26    30.21R WCI   7
MT. CLEMENS    FLURRIES  19  11  73 NW15      30.19R WCI   4
PONTIAC        MOCLDY    17   9  70 NW21G30   30.20R WCI   0
PORT HOPE        N/A     16  10  77 NW14G25   30.22R WCI   2
PORT HURON     LGT SNOW  16  12  86 NW12G18   30.21R WCI   3
TRI CITIES     MOCLDY    16   6  65 NW15      30.29R WCI   1
SAGINAW HB     CLOUDY    18   9  68 NW13      30.29R WCI   4
$$
MIZ043>046-050>051-056>058-064>065-071>073-077>080-301100-
SOUTHWEST LOWER MICHIGAN

CITY           SKY/WX    TMP DP  RH WIND       PRES   REMARKS
BATTLE CREEK   CLOUDY    22  12  65 NW10G24   30.29R WCI  11
BENTON HARBOR  LGT SNOW  24  18  77 NW13G21   30.36R WCI  12
BIG RAPIDS     CLOUDY    18  12  76 N6        30.30R WCI  10
COLDWATER      CLOUDY    20  10  64 NW16G22   30.28R WCI   6
FREMONT        CLOUDY    19  11  70 N17G26    30.34R HAZE    WCI   4
HOLLAND        CLOUDY    23  10  57 N8G20     30.36R WCI  14
GRAND RAPIDS   CLOUDY    20  12  71 NW15      30.32R WCI   6
IONIA          CLOUDY    22  12  66 NW15G25   30.29R WCI   8
KALAMAZOO      CLOUDY    21   9  59 NW20      30.31R WCI   6
LUDINGTON      FLURRIES  21  10  64 N17G26    30.38R WCI   6
MARSHALL       CLOUDY    20   9  62 NW10G22   30.27R WCI   9
MOUNT PLEASANT MOCLDY    17   7  64 NW10G18   30.30R WCI   5
MUSKEGON       CLOUDY    22  11  62 N13       30.37R WCI  10
SOUTH HAVEN    CLOUDY    25  15  64 N17G31    30.35S WCI  12
$$
MIZ016>042-301100-
NORTHERN LOWER MICHIGAN

CITY           SKY/WX    TMP DP  RH WIND       PRES   REMARKS
ALPENA         LGT SNOW   8   4  83 NW15      30.31R VSB 1   WCI  -9
BEAVER ISLAND  CLOUDY    11   4  73 N3        30.38R
BELLAIRE       CLOUDY    15   5  65 N12G17    30.37R WCI   1
CADILLAC       CLOUDY    15   8  73 N10G16    30.27R WCI   2
CHARLEVOIX     CLOUDY    13   5  70 N15G21    30.39R WCI  -2
FRANKFORT      CLOUDY    19  10  67 N13G21    30.38R WCI   6
GAYLORD        CLOUDY     8   1  73 N7        30.28R WCI  -3
GRAYLING       CLOUDY    10   3  72 NW15      30.30R WCI  -6
HARBOR SPRINGS CLOUDY    10   2  72 N3        30.36R
HOUGHTON LAKE  CLOUDY    11   3  70 N20G29    30.28R WCI  -7
MANISTEE       CLOUDY    19   7  58 N14G23    30.37R WCI   6
OSCODA         CLOUDY    10   3  72 NW13G28   30.26R WCI  -5
PELLSTON       CLOUDY     8   1  73 N9        30.37R WCI  -5
ROGERS CITY    CLOUDY     9   5  83 NW13G24   30.34R WCI  -7
TRAVERSE CITY  CLOUDY    18   9  68 N17G30    30.35R WCI   3
$$
MIZ007>008-015-301100-
EASTERN UPPER MICHIGAN

CITY           SKY/WX    TMP DP  RH WIND       PRES   REMARKS
KINROSS        CLEAR     -2  -8  78 N12       30.35R WCI -20
MACKINAC ISLAN PTCLDY     4  -2  77 N9G20     30.36R WCI -10
NEWBERRY       CLOUDY     8   5  86 N9        30.35R WCI  -5
S. S. MARIE    CLEAR     -2 -12  62 NW9       30.37R WCI -18
MUNISING         N/A     16   6  65 N15       30.40R WCI   1
$$
MIZ004>006-011>014-085-301100-
CENTRAL UPPER MICHIGAN

CITY           SKY/WX    TMP DP  RH WIND       PRES   REMARKS
MANISTIQUE     CLOUDY    13  10  87 N3        30.37R
ESCANABA       CLOUDY    12   3  67 NW9       30.43R WCI   0
MENOMINEE      CLOUDY    14   1  57 N3        30.44R
SAWYER-GWINN   CLOUDY    10   2  71 NW18      30.38R WCI  -8
$$
MIZ001>003-009>011-084-301100-
WESTERN UPPER MICHIGAN

CITY           SKY/WX    TMP DP  RH WIND       PRES   REMARKS
IRON MOUNTAIN  CLOUDY    11   3  70 NW13      30.40R WCI  -4
HOUGHTON       LGT SNOW   9   2  73 NW10      30.41S WCI  -5
COPPER HARBOR    N/A     13   4  67 N20G26    30.44R WCI  -5
IRONWOOD       CLOUDY    12   3  67 N7        30.41F WCI   2
$$

ABBREVIATIONS USED IN REMARKS
   TC - TEMPERATURE IN CELSIUS
  WCI - WIND CHILL INDEX
   HX - HEAT INDEX
  VSB - VISIBILITY




USA.gov is the U.S. government's official web portal to all federal, state and local government web resources and services.